GW0206 Weather Reports


time (UTC)temp
F
wind
direction
speed
knots
gust
knots
rain 1hr
in
rain 24hr
in
rain mn
in
humidity
%
barometer
mb
20260901131004 78 110 5.2 9.6 0.00 0.00 0.00 84 1017.8
20260901130510 78 92 4.3 7.8 0.00 0.00 0.00 84 1017.9
20260901130025 77 94 4.3 9.6 0.00 0.00 0.00 84 1017.9
20260901125516 77 65 3.5 9.6 0.00 0.00 0.00 84 1017.9
20260901125007 77 96 4.3 8.7 0.00 0.00 0.00 85 1018.0
20260901124528 77 92 4.3 8.7 0.00 0.00 0.00 86 1018.0
20260901124014 76 76 4.3 8.7 0.00 0.00 0.00 86 1018.0
20260901123520 76 88 3.5 9.6 0.00 0.00 0.00 86 1018.0
20260901123021 76 84 5.2 9.6 0.00 0.00 0.00 86 1018.0
20260901122515 76 94 4.3 10.4 0.00 0.00 0.00 87 1018.0
20260901122015 75 62 6.1 10.4 0.00 0.00 0.00 87 1017.9
20260901121511 75 102 2.6 7.8 0.00 0.00 0.00 87 1018.0
20260901121006 75 92 4.3 7.8 0.00 0.00 0.00 87 1017.9
20260901120507 75 67 2.6 7.0 0.00 0.00 0.00 88 1018.0
20260901120015 75 93 4.3 7.0 0.00 0.00 0.00 88 1018.0
20260901115507 74 78 3.5 7.0 0.00 0.00 0.00 89 1018.0
20260901115010 74 102 3.5 7.0 0.00 0.00 0.00 89 1017.9
20260901114532 74 93 3.5 6.1 0.00 0.00 0.00 89 1017.9
20260901114013 74 136 1.7 8.7 0.00 0.00 0.00 89 1017.9
20260901113508 74 85 4.3 8.7 0.00 0.00 0.00 89 1017.9
20260901113027 74 63 2.6 5.2 0.00 0.00 0.00 89 1017.9
20260901112514 74 87 1.7 6.1 0.00 0.00 0.00 89 1017.8
20260901112009 74 82 2.6 6.1 0.00 0.00 0.00 89 1017.8
20260901111526 74 80 1.7 4.3 0.00 0.00 0.00 89 1017.7
20260901111014 74 76 1.7 4.3 0.00 0.00 0.00 88 1017.6
20260901110520 74 57 1.7 6.1 0.00 0.00 0.00 88 1017.6
20260901110022 74 59 1.7 6.1 0.00 0.00 0.00 88 1017.5
20260901105508 74 76 2.6 6.1 0.00 0.00 0.00 88 1017.5
20260901105012 74 48 2.6 8.7 0.00 0.00 0.00 89 1017.4
20260901104530 74 78 3.5 8.7 0.00 0.00 0.00 89 1017.4
20260901104012 74 53 3.5 8.7 0.00 0.00 0.00 89 1017.4
20260901103511 74 54 4.3 7.8 0.00 0.00 0.00 90 1017.4
20260901103028 73 86 2.6 7.8 0.00 0.00 0.00 90 1017.5
20260901102518 73 11 2.6 6.1 0.00 0.00 0.00 90 1017.5
20260901102012 73 46 2.6 6.1 0.00 0.00 0.00 90 1017.5
20260901101529 73 76 2.6 6.1 0.00 0.00 0.00 90 1017.5
20260901101014 73 67 1.7 6.1 0.00 0.00 0.00 90 1017.4
20260901100503 73 63 2.6 5.2 0.00 0.00 0.00 91 1017.3
20260901100004 73 36 2.6 6.1 0.00 0.00 0.00 91 1017.3
20260901095506 73 43 1.7 6.1 0.00 0.00 0.00 91 1017.3
20260901095008 73 88 1.7 3.5 0.00 0.00 0.00 90 1017.3
20260901094505 73 26 1.7 3.5 0.00 0.00 0.00 90 1017.4
20260901094002 73 35 0.9 3.5 0.00 0.00 0.00 91 1017.4
20260901093507 73 45 0.9 4.3 0.00 0.00 0.00 91 1017.3
20260901093023 73 68 1.7 4.3 0.00 0.00 0.00 91 1017.4
20260901092505 73 34 1.7 5.2 0.00 0.00 0.00 91 1017.4
20260901092006 73 35 1.7 5.2 0.00 0.00 0.00 91 1017.4
20260901091509 73 38 1.7 6.1 0.00 0.00 0.00 91 1017.4
20260901091004 72 34 1.7 8.7 0.00 0.00 0.00 91 1017.3
20260901090502 72 360 2.6 8.7 0.00 0.00 0.00 91 1017.3
20260901090012 72 18 0.9 3.5 0.00 0.00 0.00 91 1017.4
20260901085503 72 24 0.9 3.5 0.00 0.00 0.00 91 1017.4
20260901085003 72 15 1.7 3.5 0.00 0.00 0.00 91 1017.4
20260901084512 72 17 0.9 3.5 0.00 0.00 0.00 91 1017.4
20260901084010 72 26 1.7 3.5 0.00 0.00 0.00 91 1017.4
20260901083509 73 37 0.9 2.6 0.00 0.00 0.00 91 1017.5
20260901083008 73 19 0.9 2.6 0.00 0.00 0.00 91 1017.4
20260901082506 73 24 0.9 2.6 0.00 0.00 0.00 91 1017.5
20260901082008 73 21 0.9 2.6 0.00 0.00 0.00 90 1017.4
20260901081531 73 36 0.9 3.5 0.00 0.00 0.00 90 1017.5
20260901081002 73 23 0.9 3.5 0.00 0.00 0.00 90 1017.5
20260901080504 73 43 0.9 3.5 0.00 0.00 0.00 90 1017.4
20260901080008 73 28 0.9 3.5 0.00 0.00 0.00 90 1017.4
20260901075503 73 32 0.9 4.3 0.00 0.00 0.00 90 1017.3
20260901075003 73 18 1.7 4.3 0.00 0.00 0.00 90 1017.3
20260901074511 73 57 1.7 4.3 0.00 0.00 0.00 90 1017.3
20260901074005 73 52 1.7 3.5 0.00 0.00 0.00 90 1017.3
20260901073503 73 42 1.7 4.3 0.00 0.00 0.00 90 1017.2
20260901073016 73 46 1.7 4.3 0.00 0.00 0.00 90 1017.2
20260901072511 73 5 1.7 3.5 0.00 0.00 0.00 90 1017.2
20260901072008 73 58 1.7 4.3 0.00 0.00 0.00 90 1017.3
20260901071514 73 22 1.7 7.0 0.00 0.00 0.00 90 1017.3
20260901071009 73 21 1.7 7.0 0.00 0.00 0.00 90 1017.3
20260901070512 73 34 1.7 4.3 0.00 0.00 0.00 90 1017.4
20260901070007 73 32 1.7 3.5 0.00 0.00 0.00 90 1017.5
20260901065507 73 43 1.7 3.5 0.00 0.00 0.00 90 1017.5
20260901065013 73 49 1.7 4.3 0.00 0.00 0.00 90 1017.7
20260901064509 73 42 2.6 4.3 0.00 0.00 0.00 89 1017.5
20260901064005 73 36 1.7 5.2 0.00 0.00 0.00 89 1017.5
20260901063504 73 28 1.7 5.2 0.00 0.00 0.00 89 1017.5
20260901063021 73 30 1.7 4.3 0.00 0.00 0.00 89 1017.5
20260901062509 73 28 1.7 4.3 0.00 0.00 0.00 89 1017.5
20260901062007 73 29 2.6 4.3 0.00 0.00 0.00 90 1017.5
20260901061525 73 30 1.7 4.3 0.00 0.00 0.00 90 1017.6
20260901061009 73 31 1.7 4.3 0.00 0.00 0.00 90 1017.7
20260901060506 73 27 2.6 4.3 0.00 0.00 0.00 90 1017.7
20260901060018 73 34 0.9 4.3 0.00 0.00 0.00 90 1017.8
20260901055511 73 78 1.7 3.5 0.00 0.00 0.00 90 1017.8
20260901055014 73 40 1.7 3.5 0.00 0.00 0.00 90 1017.7
20260901054516 73 32 1.7 3.5 0.00 0.00 0.00 90 1017.8
20260901054011 73 26 1.7 2.6 0.00 0.00 0.00 89 1017.8
20260901053516 73 30 0.9 3.5 0.00 0.00 0.00 89 1017.9
20260901053035 73 22 1.7 4.3 0.00 0.00 0.00 89 1017.9
20260901052506 73 15 1.7 4.3 0.00 0.00 0.00 89 1017.9
20260901052008 73 36 1.7 3.5 0.00 0.00 0.00 89 1017.9
20260901051528 73 62 1.7 4.3 0.00 0.00 0.00 89 1018.1
20260901051003 73 49 1.7 4.3 0.00 0.00 0.00 89 1018.1
20260901050512 73 54 1.7 4.3 0.00 0.00 0.00 89 1018.1
20260901050027 74 46 2.6 4.3 0.00 0.00 0.00 89 1018.0
20260901045513 74 28 1.7 4.3 0.00 0.00 0.00 89 1018.0
20260901045009 74 21 1.7 4.3 0.00 0.00 0.00 89 1018.1
20260901044527 74 15 1.7 4.3 0.00 0.00 0.00 89 1018.1
20260901044012 74 50 1.7 3.5 0.00 0.00 0.00 89 1018.1
20260901043514 74 18 1.7 4.3 0.00 0.00 0.00 88 1018.1
20260901043030 74 26 1.7 4.3 0.00 0.00 0.00 89 1018.2
20260901042512 74 50 1.7 4.3 0.00 0.00 0.00 89 1018.2
20260901042013 74 62 2.6 4.3 0.00 0.00 0.00 89 1018.3
20260901041541 74 88 1.7 3.5 0.00 0.00 0.00 89 1018.2
20260901041007 74 55 1.7 3.5 0.00 0.00 0.00 89 1018.2
20260901040509 74 63 0.9 3.5 0.00 0.00 0.00 89 1018.3
20260901040022 74 65 0.0 3.5 0.00 0.00 0.00 88 1018.3
20260901035506 74 25 0.0 0.9 0.00 0.00 0.00 88 1018.1
20260901035013 74 13 0.0 0.0 0.00 0.00 0.00 88 1017.9
20260901034528 74 13 0.0 0.0 0.00 0.00 0.00 88 1017.9
20260901034013 74 13 0.0 0.0 0.00 0.00 0.00 88 1017.8
20260901033509 74 13 0.0 1.7 0.00 0.00 0.00 88 1017.8
20260901033036 74 13 0.0 1.7 0.00 0.00 0.00 88 1017.8
20260901032518 74 13 0.0 1.7 0.00 0.00 0.00 87 1017.9
20260901032012 74 13 0.0 2.6 0.00 0.00 0.00 87 1017.8
20260901031547 74 13 0.9 2.6 0.00 0.00 0.00 86 1017.7
20260901031006 75 29 0.0 2.6 0.00 0.00 0.00 86 1017.7
20260901030506 75 29 0.0 2.6 0.00 0.00 0.00 86 1017.5
20260901030016 75 29 0.9 2.6 0.00 0.00 0.00 85 1017.6
20260901025509 75 29 0.0 1.7 0.00 0.00 0.00 85 1017.8
20260901025004 75 29 0.0 2.6 0.00 0.00 0.00 84 1017.9
20260901024518 75 29 0.9 2.6 0.00 0.00 0.00 84 1017.9
20260901024009 75 49 0.9 3.5 0.00 0.00 0.00 84 1018.0
20260901023511 76 61 1.7 3.5 0.00 0.00 0.00 84 1018.1
20260901023019 76 82 0.0 3.5 0.00 0.00 0.00 84 1018.1
20260901022514 76 77 0.9 2.6 0.00 0.00 0.00 84 1018.3
20260901022017 76 98 0.9 2.6 0.00 0.00 0.00 83 1018.1
20260901021516 76 24 0.9 2.6 0.00 0.00 0.00 83 1017.9
20260901021008 76 26 0.0 1.7 0.00 0.00 0.00 83 1018.0
20260901020506 77 26 0.0 2.6 0.00 0.00 0.00 82 1017.9
20260901020011 77 26 0.9 2.6 0.00 0.00 0.00 82 1017.7
20260901015506 77 87 0.9 2.6 0.00 0.00 0.00 82 1017.9
20260901015011 77 54 0.9 5.2 0.00 0.00 0.00 82 1017.9
20260901014536 77 98 1.7 5.2 0.00 0.00 0.00 82 1018.0
20260901014011 77 101 1.7 4.3 0.00 0.00 0.00 81 1017.8
20260901013506 77 57 1.7 4.3 0.00 0.00 0.00 81 1017.6
20260901013025 77 65 1.7 6.1 0.00 0.00 0.00 81 1017.5
20260901012511 78 18 3.5 6.1 0.00 0.00 0.00 81 1017.5
20260901012003 78 50 1.7 3.5 0.00 0.00 0.00 81 1017.5
20260901011523 78 61 1.7 6.1 0.00 0.00 0.00 81 1017.7
20260901011013 78 34 2.6 6.1 0.00 0.00 0.00 81 1017.9
20260901010515 78 53 1.7 4.3 0.00 0.00 0.00 82 1018.0
20260901010015 78 47 1.7 6.1 0.00 0.00 0.00 82 1018.1
20260901005512 78 67 2.6 6.1 0.00 0.00 0.00 82 1018.1
20260901005016 78 55 2.6 4.3 0.00 0.00 0.00 82 1018.2
20260901004517 78 85 2.6 6.1 0.00 0.00 0.00 82 1018.3
20260901004007 78 96 2.6 6.1 0.00 0.00 0.00 82 1018.3
20260901003509 78 105 2.6 6.1 0.00 0.00 0.00 82 1018.2
20260901003023 78 75 1.7 6.1 0.00 0.00 0.00 82 1018.2
20260901002506 78 52 2.6 5.2 0.00 0.00 0.00 83 1018.2
20260901002014 78 72 1.7 5.2 0.00 0.00 0.00 83 1018.2
20260901001536 79 46 1.7 4.3 0.00 0.00 0.00 83 1018.2
20260901001013 79 78 1.7 4.3 0.00 0.00 0.00 83 1018.1
20260901000509 79 69 0.9 3.5 0.00 0.00 0.00 82 1018.1
20260901000028 80 101 1.7 3.5 0.00 0.00 0.00 82 1018.2
20260831235517 80 80 0.9 2.6 0.00 0.00 0.00 82 1018.2
20260831235014 80 80 0.9 2.6 0.00 0.00 0.00 81 1018.3
20260831234524 81 80 0.0 1.7 0.00 0.00 0.00 80 1018.4
20260831234014 81 80 0.9 1.7 0.00 0.00 0.00 79 1018.4
20260831233516 82 80 0.0 1.7 0.00 0.00 0.00 79 1018.4
20260831233016 82 80 0.0 2.6 0.00 0.00 0.00 78 1018.3
20260831232508 82 80 0.0 2.6 0.00 0.00 0.00 77 1018.4
20260831232009 82 80 0.0 0.0 0.00 0.00 0.00 77 1018.4
20260831231526 83 80 0.0 1.7 0.00 0.00 0.00 77 1018.4
20260831231011 83 80 0.0 1.7 0.00 0.00 0.00 77 1018.4
20260831230512 83 80 0.9 1.7 0.00 0.00 0.00 77 1018.3
20260831230028 83 80 0.0 1.7 0.00 0.00 0.00 76 1018.3
20260831225521 84 80 0.0 0.9 0.00 0.00 0.00 74 1018.2
20260831225013 84 80 0.0 1.7 0.00 0.00 0.00 76 1018.3
20260831224530 84 80 0.0 1.7 0.00 0.00 0.00 74 1018.3
20260831224020 84 80 0.0 1.7 0.00 0.00 0.00 73 1018.2
20260831223510 85 80 0.0 2.6 0.00 0.00 0.00 72 1018.2
20260831223030 85 80 0.9 2.6 0.00 0.00 0.00 71 1018.3
20260831222517 85 80 0.0 1.7 0.00 0.00 0.00 71 1018.3
20260831222017 85 80 0.0 0.9 0.00 0.00 0.00 69 1018.1
20260831221524 86 127 0.0 0.0 0.00 0.00 0.00 70 1018.2
20260831221009 86 127 0.0 0.0 0.00 0.00 0.00 70 1018.2
20260831220513 85 127 0.0 0.0 0.00 0.00 0.00 71 1018.3
20260831220027 85 127 0.0 1.7 0.00 0.00 0.00 68 1018.3
20260831215513 86 127 0.0 1.7 0.00 0.00 0.00 69 1018.5
20260831215014 86 116 0.0 2.6 0.00 0.00 0.00 69 1018.4
20260831214530 85 116 0.0 3.5 0.00 0.00 0.00 69 1018.4
20260831214012 85 116 0.0 5.2 0.00 0.00 0.00 70 1018.4
20260831213516 85 120 0.0 5.2 0.00 0.00 0.00 70 1018.5
20260831213034 85 110 0.9 3.5 0.00 0.00 0.00 70 1018.6
20260831212519 84 96 0.9 3.5 0.00 0.00 0.00 71 1018.7
20260831212015 84 135 0.0 3.5 0.00 0.00 0.00 73 1018.7
20260831211531 84 125 0.9 6.1 0.00 0.00 0.00 73 1018.6
20260831211021 84 97 1.7 6.1 0.00 0.00 0.00 73 1018.5
20260831210517 84 94 2.6 6.1 0.00 0.00 0.00 73 1018.4
20260831210028 83 109 2.6 6.1 0.00 0.00 0.00 73 1018.4
20260831205510 83 101 0.9 2.6 0.00 0.00 0.00 74 1018.3
20260831205012 84 101 0.9 2.6 0.00 0.00 0.00 73 1018.2
20260831204530 84 101 0.0 1.7 0.00 0.00 0.00 71 1018.1
20260831204004 84 101 0.0 2.6 0.00 0.00 0.00 72 1018.1
20260831203504 84 101 0.0 4.3 0.00 0.00 0.00 70 1018.2
20260831203004 84 89 0.9 6.1 0.00 0.00 0.00 68 1018.1
20260831202502 85 76 2.6 6.1 0.00 0.00 0.00 66 1018.0
20260831202003 85 63 2.6 7.0 0.00 0.00 0.00 65 1018.0
20260831201516 86 84 2.6 8.7 0.00 0.00 0.00 64 1018.3
20260831201002 86 126 3.5 8.7 0.00 0.00 0.00 63 1018.3
20260831200504 87 85 4.3 7.8 0.00 0.00 0.00 64 1018.3
20260831200013 87 97 3.5 7.8 0.00 0.00 0.00 63 1018.5
20260831195510 87 49 2.6 7.8 0.00 0.00 0.00 63 1018.5
20260831195002 86 76 3.5 9.6 0.00 0.00 0.00 63 1018.6
20260831194505 86 96 3.5 9.6 0.00 0.00 0.00 65 1018.6
20260831194002 87 114 1.7 9.6 0.00 0.00 0.00 66 1018.7
20260831193503 87 93 1.7 7.8 0.00 0.00 0.00 65 1018.8
20260831193006 87 109 1.7 7.0 0.00 0.00 0.00 64 1018.8
20260831192503 87 152 2.6 7.0 0.00 0.00 0.00 63 1018.9
20260831192005 87 168 3.5 8.7 0.00 0.00 0.00 63 1018.9
20260831191504 87 71 2.6 8.7 0.00 0.00 0.00 66 1018.9
20260831191003 88 132 1.7 7.8 0.00 0.00 0.00 67 1019.0
20260831190504 88 94 2.6 8.7 0.00 0.00 0.00 63 1019.1
20260831190016 88 132 3.5 8.7 0.00 0.00 0.00 64 1019.2
20260831185503 87 101 3.5 7.8 0.00 0.00 0.00 66 1019.2
20260831185004 88 159 1.7 6.1 0.00 0.00 0.00 67 1019.3
20260831184519 88 59 2.6 5.2 0.00 0.00 0.00 66 1019.3
20260831184004 88 103 1.7 7.8 0.00 0.00 0.00 68 1019.3
20260831183506 87 99 1.7 7.8 0.00 0.00 0.00 71 1019.3
20260831183006 87 95 4.3 10.4 0.00 0.00 0.00 67 1019.4
20260831182504 86 122 2.6 10.4 0.00 0.00 0.00 67 1019.4
20260831182003 86 78 1.7 7.8 0.00 0.00 0.00 68 1019.5
20260831181508 86 97 3.5 8.7 0.00 0.00 0.00 68 1019.5
20260831181003 85 126 4.3 8.7 0.00 0.00 0.00 67 1019.5
20260831180503 85 50 5.2 8.7 0.00 0.00 0.00 69 1019.5
20260831180015 84 107 3.5 7.8 0.00 0.00 0.00 70 1019.6
20260831175508 84 104 1.7 7.8 0.00 0.00 0.00 72 1019.6
20260831175011 84 103 5.2 7.8 0.00 0.00 0.00 70 1019.6
20260831174508 84 128 2.6 6.1 0.00 0.00 0.00 70 1019.6
20260831174007 84 90 0.9 7.8 0.00 0.00 0.00 70 1019.6
20260831173510 84 69 2.6 7.8 0.00 0.00 0.00 69 1019.7
20260831173027 85 78 3.5 7.0 0.00 0.00 0.00 68 1019.6
20260831172505 85 84 2.6 9.6 0.00 0.00 0.00 68 1019.7
20260831172006 85 105 4.3 9.6 0.00 0.00 0.00 66 1019.6
20260831171506 86 105 5.2 8.7 0.00 0.00 0.00 67 1019.7
20260831171003 85 102 3.5 8.7 0.00 0.00 0.00 68 1019.7
20260831170503 85 110 2.6 9.6 0.00 0.00 0.00 67 1019.8
20260831170012 85 85 4.3 9.6 0.00 0.00 0.00 66 1019.8
20260831165506 85 106 3.5 8.7 0.00 0.00 0.00 68 1019.9
20260831165004 85 136 3.5 8.7 0.00 0.00 0.00 66 1019.9
20260831164519 85 67 4.3 8.7 0.00 0.00 0.00 65 1019.9
20260831164010 85 112 3.5 7.0 0.00 0.00 0.00 65 1019.8
20260831163510 85 86 2.6 7.0 0.00 0.00 0.00 66 1019.8
20260831163008 85 113 3.5 7.8 0.00 0.00 0.00 65 1019.8
20260831162508 85 15 3.5 7.8 0.00 0.00 0.00 65 1019.8
20260831162012 85 48 1.7 6.1 0.00 0.00 0.00 69 1019.8
20260831161533 84 69 2.6 5.2 0.00 0.00 0.00 71 1019.9
20260831161008 84 58 1.7 5.2 0.00 0.00 0.00 71 1019.9
20260831160510 83 71 0.9 6.1 0.00 0.00 0.00 73 1019.8
20260831160037 83 69 1.7 6.1 0.00 0.00 0.00 72 1019.8
20260831155505 82 17 0.9 6.1 0.00 0.00 0.00 73 1019.8
20260831155004 81 19 1.7 6.1 0.00 0.00 0.00 74 1019.8
20260831154540 81 56 3.5 5.2 0.00 0.00 0.00 77 1019.9
20260831154007 81 31 0.9 5.2 0.00 0.00 0.00 77 1019.9
20260831153505 80 46 2.6 5.2 0.00 0.00 0.00 78 1019.9
20260831153019 80 73 1.7 7.0 0.00 0.00 0.00 81 1019.9
20260831152511 79 61 1.7 7.0 0.00 0.00 0.00 81 1020.0
20260831152010 78 96 0.9 7.0 0.00 0.00 0.00 84 1020.0
20260831151520 77 80 2.6 6.1 0.00 0.00 0.00 84 1020.1
20260831151014 76 18 0.0 3.5 0.00 0.00 0.00 87 1020.0
20260831150513 75 352 1.7 3.5 0.00 0.00 0.00 88 1020.1
20260831150011 75 67 1.7 3.5 0.00 0.00 0.00 89 1020.1
20260831145507 74 30 0.9 3.5 0.00 0.00 0.00 89 1020.1
20260831145019 74 42 0.9 3.5 0.00 0.00 0.00 90 1020.2
20260831144534 74 61 1.7 3.5 0.00 0.00 0.00 90 1020.2
20260831144006 74 34 1.7 3.5 0.00 0.00 0.00 90 1020.2
20260831143508 74 44 0.9 3.5 0.00 0.00 0.00 90 1020.1
20260831143016 74 59 0.9 3.5 0.00 0.00 0.00 90 1020.1
20260831142508 73 40 0.9 3.5 0.00 0.00 0.00 90 1020.0
20260831142011 73 80 0.9 4.3 0.00 0.00 0.00 91 1020.0
20260831141523 73 58 1.7 4.3 0.00 0.00 0.00 91 1020.0
20260831141013 73 52 1.7 4.3 0.00 0.00 0.00 92 1020.0
20260831140508 73 28 1.7 3.5 0.00 0.00 0.00 92 1020.0
20260831140029 72 28 0.9 3.5 0.00 0.00 0.00 92 1020.0
20260831135516 72 98 0.9 3.5 0.00 0.00 0.00 92 1019.9
20260831135012 72 51 0.0 1.7 0.00 0.00 0.00 92 1019.9
20260831134525 72 51 0.0 0.9 0.00 0.00 0.00 92 1019.9
20260831134011 72 51 0.0 2.6 0.00 0.00 0.00 92 1019.9
20260831133513 72 51 0.0 2.6 0.00 0.00 0.00 92 1019.9
20260831133019 72 51 0.9 2.6 0.00 0.00 0.00 93 1019.8
20260831132513 72 5 0.9 3.5 0.00 0.00 0.00 93 1019.8
20260831132006 71 5 0.9 3.5 0.00 0.00 0.00 93 1019.8
20260831131521 71 348 0.9 3.5 0.00 0.00 0.00 93 1019.8